HST,Max TemperatureF,Mean TemperatureF,Min TemperatureF,Max Dew PointF,MeanDew PointF,Min DewpointF,Max Humidity, Mean Humidity, Min Humidity, Max Sea Level PressureIn, Mean Sea Level PressureIn, Min Sea Level PressureIn, Max VisibilityMiles, Mean VisibilityMiles, Min VisibilityMiles, Max Wind SpeedMPH, Mean Wind SpeedMPH, Max Gust SpeedMPH,PrecipitationIn, CloudCover, Events, WindDirDegrees
2011-10-1,84,77,70,68,66,59,90,73,55,30.06,30.01,29.94,10,10,10,15,5,18,T,4,,188
2011-10-2,84,76,67,68,64,55,90,74,58,30.12,30.06,30.01,10,9,2,15,7,17,0.02,6,Rain,193
2011-10-3,85,76,67,70,63,52,84,69,53,30.17,30.12,30.08,10,10,7,14,7,16,T,4,Rain,199
2011-10-4,83,76,69,69,66,61,90,71,51,30.16,30.12,30.07,10,9,3,14,5,18,0.07,7,Rain,10
2011-10-5,86,77,68,70,63,57,84,62,40,30.14,30.09,30.03,10,9,2,14,7,17,T,5,Rain,190
2011-10-6,84,77,70,70,67,65,90,76,62,30.09,30.05,30.00,10,9,2,17,6,21,0.04,7,Rain,199
2011-10-7,85,77,69,70,66,60,84,68,51,30.11,30.05,30.01,10,10,10,13,6,16,T,4,,132
2011-10-8,86,78,69,72,68,61,84,68,51,30.16,30.10,30.06,10,9,3,18,7,22,0.01,6,Rain,228
2011-10-9,82,76,70,70,68,65,93,80,67,30.16,30.12,30.07,10,9,2,14,6,16,0.24,7,Rain,293
2011-10-10,84,77,70,70,68,66,90,75,59,30.11,30.06,30.00,10,9,4,15,7,20,0.12,7,Rain,328
2011-10-11,84,76,67,68,66,62,90,73,55,30.04,29.99,29.94,10,10,9,18,6,22,T,6,Rain,210
2011-10-12,85,77,68,67,65,61,84,68,51,30.07,30.01,29.96,10,10,10,15,6,20,0.00,4,Rain,193
2011-10-13,83,76,68,69,66,62,84,70,55,30.09,30.04,30.00,10,10,10,14,6,17,T,6,,292
2011-10-14,82,75,68,70,66,61,90,72,54,30.08,30.04,29.99,10,10,2,16,6,18,0.04,5,Rain,326
2011-10-15,81,76,71,70,67,64,93,78,62,30.09,30.05,30.00,10,8,1,17,7,22,0.89,8,Rain,350
2011-10-16,81,75,68,68,65,61,93,76,58,30.08,30.04,29.98,10,8,2,14,5,17,0.23,7,Rain,264
2011-10-17,82,74,66,67,64,61,93,76,58,30.08,30.04,29.98,10,9,2,14,6,16,0.13,7,Rain,176
2011-10-18,83,75,67,66,63,61,84,70,55,30.09,30.04,29.99,10,10,10,14,6,20,T,7,,197
2011-10-19,83,75,66,65,62,56,78,65,51,30.08,30.04,29.98,10,10,10,13,6,16,0.00,3,Rain,234
2011-10-20,84,75,65,66,62,54,93,72,51,30.09,30.04,29.99,10,9,2,13,7,18,0.07,4,Rain,205
2011-10-21,83,74,65,67,64,58,81,68,54,30.12,30.07,30.01,10,10,10,17,7,23,0.02,5,,191
2011-10-22,82,75,68,71,67,58,87,74,60,30.10,30.05,30.00,10,9,2,14,6,17,0.15,7,Rain,210
2011-10-23,83,75,67,69,65,62,87,71,55,30.03,29.98,29.92,10,10,10,16,8,22,T,5,Rain,202
2011-10-24,84,76,67,70,66,59,84,71,58,30.05,29.99,29.93,10,9,3,16,8,22,T,6,Rain,198
2011-10-25,82,76,69,67,66,64,90,76,62,30.07,30.01,29.96,10,9,2,13,7,17,0.63,7,Rain,238
2011-10-26,82,75,68,70,65,62,90,74,58,30.06,30.02,29.97,10,9,4,13,6,17,0.01,8,Rain,229
2011-10-27,83,75,67,66,63,59,84,66,47,30.03,29.98,29.91,10,10,10,10,6,13,0.00,5,,228
2011-10-28,81,74,66,67,63,58,87,71,54,29.95,29.92,29.87,10,9,2,9,5,12,0.07,5,Rain,240
2011-10-29,80,73,65,72,66,55,93,81,68,29.99,29.93,29.85,10,8,1,20,6,29,0.46,6,Rain,223
2011-10-30,82,73,64,70,65,59,87,77,67,30.01,29.95,29.90,10,10,3,15,6,21,0.03,4,Rain,313
2011-10-31,83,76,68,71,67,60,84,73,62,30.00,29.96,29.91,10,10,8,16,5,22,T,5,Rain,117